Date String (YYYY-MM-DD hh:mm:ss) UTC,Instrument flags,Ambient pressure (hPa),Sample flow (lpm),Bypass flow (lpm),Sample temperature (°C),Ambient temperature (°C),ASC tube jacket temperature (°C),LED temperature (°C),Box temperature (°C),Sample RH (%),Span deviation,Mass concentration (μg/m³),Mass concentration (μg/m³),Mass concentration (μg/m³)
DateTimeUTC,F1_M11,P_M11,Q1_M11,Q2_M11,T1_M11,T2_M11,T3_M11,T4_M11,T5_M11,U1_M11,ZSPAN_M11,X2_M11,X0_M11,X1_M11
2022-09-17 18:00:00,,0824.8,4.99,0.00,30.3,29.1,00.0,38.9,32.1,18.8,0000.0,0003.94,0008.11,0003.48
2022-09-17 18:01:00,,0824.8,5.00,0.00,30.3,29.1,00.0,38.9,32.2,18.7,0000.0,0003.93,0008.02,0003.49
2022-09-17 18:02:00,,0824.8,5.01,0.00,30.3,28.8,00.0,39.0,32.2,19.0,0000.0,0003.97,0008.10,0003.50
2022-09-17 18:03:00,,0824.8,5.01,0.00,30.3,27.4,00.0,38.9,32.1,18.8,0000.0,0003.99,0007.76,0003.51
2022-09-17 18:04:00,,0824.8,4.99,0.00,30.2,26.6,00.0,38.9,32.0,19.0,0000.0,0004.02,0007.51,0003.53
2022-09-17 18:05:00,,0824.8,5.00,0.00,30.2,26.8,00.0,38.8,31.9,19.3,0000.0,0004.05,0007.70,0003.54
2022-09-17 18:06:00,,0824.8,4.99,0.00,30.1,27.1,00.0,38.8,31.8,19.1,0000.0,0004.05,0007.76,0003.54
2022-09-17 18:07:00,,0824.7,5.00,0.00,30.0,27.4,00.0,38.8,31.7,19.3,0000.0,0004.04,0007.77,0003.55
2022-09-17 18:08:00,,0824.7,5.01,0.00,30.0,27.7,00.0,38.8,31.8,19.8,0000.0,0004.05,0007.76,0003.56
2022-09-17 18:09:00,,0824.6,4.99,0.00,30.0,28.0,00.0,38.7,31.7,19.4,0000.0,0004.01,0007.34,0003.57
2022-09-17 18:10:00,,0824.7,5.01,0.00,30.0,28.2,00.0,38.7,31.8,19.7,0000.0,0003.98,0007.23,0003.58
2022-09-17 18:11:00,,0824.6,5.00,0.00,30.0,28.4,00.0,38.7,31.9,19.3,0000.0,0004.02,0007.38,0003.58
2022-09-17 18:12:00,,0824.6,5.01,0.00,30.0,28.6,00.0,38.7,31.9,19.5,0000.0,0004.04,0007.54,0003.59
2022-09-17 18:13:00,,0824.6,4.99,0.00,30.0,28.7,00.0,38.8,31.9,19.8,0000.0,0004.05,0008.02,0003.60
2022-09-17 18:14:00,,0824.7,4.99,0.00,30.1,28.8,00.0,38.8,31.9,19.3,0000.0,0004.03,0007.89,0003.60
2022-09-17 18:15:00,,0824.6,5.01,0.00,30.1,28.9,00.0,38.8,32.0,19.2,0000.0,0004.03,0008.00,0003.59
2022-09-17 18:16:00,,0824.6,5.00,0.00,30.1,28.9,00.0,38.8,32.0,19.3,0000.0,0003.99,0007.83,0003.58
2022-09-17 18:17:00,,0824.6,4.99,0.00,30.2,29.0,00.0,38.8,32.0,19.3,0000.0,0003.97,0007.99,0003.59
2022-09-17 18:18:00,,0824.6,5.02,0.00,30.2,29.1,00.0,38.8,32.1,19.3,0000.0,0003.99,0008.34,0003.60
2022-09-17 18:19:00,,0824.7,4.99,0.00,30.2,28.8,00.0,38.8,32.1,19.5,0000.0,0004.00,0008.64,0003.60
2022-09-17 18:20:00,,0824.7,5.00,0.00,30.2,27.5,00.0,38.8,32.0,19.2,0000.0,0004.03,0008.83,0003.62
2022-09-17 18:21:00,,0824.6,5.00,0.00,30.1,26.6,00.0,38.8,31.9,19.2,0000.0,0004.06,0008.85,0003.63
2022-09-17 18:22:00,,0824.6,5.00,0.00,30.1,26.7,00.0,38.7,31.8,19.7,0000.0,0004.08,0008.93,0003.64
2022-09-17 18:23:00,,0824.6,5.00,0.00,30.0,27.0,00.0,38.7,31.7,19.6,0000.0,0004.09,0008.80,0003.65
2022-09-17 18:24:00,,0824.5,5.00,0.00,30.0,27.3,00.0,38.7,31.6,19.8,0000.0,0004.11,0008.57,0003.65
2022-09-17 18:25:00,,0824.8,4.99,0.00,29.9,27.7,00.0,38.7,31.7,20.0,0000.0,0004.12,0008.44,0003.65
2022-09-17 18:26:00,,0824.7,5.00,0.00,29.9,28.0,00.0,38.6,31.7,19.8,0000.0,0004.14,0008.45,0003.66
2022-09-17 18:27:00,,0824.7,5.01,0.00,29.9,28.2,00.0,38.7,31.7,20.2,0000.0,0004.14,0008.45,0003.67
2022-09-17 18:28:00,,0824.9,5.00,0.00,29.9,28.3,00.0,38.7,31.7,20.2,0000.0,0004.16,0008.24,0003.67
2022-09-17 18:29:00,,0824.6,5.00,0.00,30.0,28.5,00.0,38.7,31.8,20.0,0000.0,0004.16,0007.93,0003.67
2022-09-17 18:30:00,,0824.7,4.99,0.00,30.0,28.6,00.0,38.7,31.8,19.7,0000.0,0004.17,0008.10,0003.68
2022-09-17 18:31:00,,0824.6,5.01,0.00,30.0,28.7,00.0,38.7,31.9,20.0,0000.0,0004.16,0008.97,0003.67
2022-09-17 18:32:00,,0824.4,4.99,0.00,30.0,28.8,00.0,38.7,31.9,19.9,0000.0,0004.13,0009.59,0003.67
2022-09-17 18:33:00,,0824.4,5.01,0.00,30.0,28.9,00.0,38.7,31.9,19.9,0000.0,0004.12,0009.66,0003.68
2022-09-17 18:34:00,,0824.5,5.01,0.00,30.1,28.9,00.0,38.7,32.0,19.9,0000.0,0004.12,0009.66,0003.68
2022-09-17 18:35:00,,0824.4,4.99,0.00,30.1,29.0,00.0,38.7,32.0,19.9,0000.0,0004.12,0009.67,0003.68
2022-09-17 18:36:00,,0824.5,4.99,0.00,30.1,29.1,00.0,38.8,32.0,20.2,0000.0,0004.12,0009.62,0003.69
2022-09-17 18:37:00,,0824.4,5.01,0.00,30.2,28.9,00.0,38.8,32.1,20.2,0000.0,0004.09,0009.77,0003.69
2022-09-17 18:38:00,,0824.5,5.00,0.00,30.2,27.5,00.0,38.8,32.0,20.2,0000.0,0004.15,0010.41,0003.70
2022-09-17 18:39:00,,0824.5,5.00,0.00,30.1,26.4,00.0,38.7,31.9,20.1,0000.0,0004.15,0010.43,0003.70
2022-09-17 18:40:00,,0824.5,5.00,0.00,30.1,26.5,00.0,38.7,31.8,20.0,0000.0,0004.18,0010.55,0003.70
2022-09-17 18:41:00,,0824.5,5.00,0.00,30.0,26.8,00.0,38.6,31.6,20.2,0000.0,0004.17,0010.35,0003.70
2022-09-17 18:42:00,,0824.4,5.00,0.00,29.9,27.2,00.0,38.6,31.6,20.4,0000.0,0004.16,0009.46,0003.70
2022-09-17 18:43:00,,0824.4,5.00,0.00,29.9,27.5,00.0,38.6,31.6,20.4,0000.0,0004.16,0008.75,0003.69
2022-09-17 18:44:00,,0824.4,5.00,0.00,29.9,27.8,00.0,38.6,31.6,19.9,0000.0,0004.14,0008.70,0003.68
2022-09-17 18:45:00,,0824.3,4.99,0.00,29.9,28.0,00.0,38.6,31.7,19.9,0000.0,0004.14,0008.76,0003.68
2022-09-17 18:46:00,,0824.3,5.00,0.00,29.9,28.2,00.0,38.6,31.7,20.0,0000.0,0004.10,0008.58,0003.67
2022-09-17 18:47:00,,0824.4,4.99,0.00,29.9,28.4,00.0,38.6,31.7,20.0,0000.0,0004.09,0008.73,0003.65
2022-09-17 18:48:00,,0824.4,5.02,0.00,29.9,28.5,00.0,38.6,31.7,19.8,0000.0,0004.09,0008.80,0003.65
2022-09-17 18:49:00,,0824.3,5.00,0.00,29.9,28.6,00.0,38.6,31.8,19.8,0000.0,0004.05,0008.61,0003.63
2022-09-17 18:50:00,,0824.3,5.00,0.00,30.0,28.7,00.0,38.6,31.8,19.6,0000.0,0004.07,0009.15,0003.63
2022-09-17 18:51:00,,0824.3,5.01,0.00,30.0,28.8,00.0,38.6,31.9,19.6,0000.0,0004.03,0009.04,0003.63
2022-09-17 18:52:00,,0824.3,5.00,0.00,30.0,28.9,00.0,38.7,31.9,19.6,0000.0,0004.03,0008.72,0003.62
2022-09-17 18:53:00,,0824.4,5.00,0.00,30.0,28.9,00.0,38.7,31.9,19.7,0000.0,0004.02,0008.75,0003.63
2022-09-17 18:54:00,,0824.4,5.02,0.00,30.1,29.0,00.0,38.7,32.0,20.0,0000.0,0004.01,0008.69,0003.64
2022-09-17 18:55:00,,0824.3,5.01,0.00,30.1,29.0,00.0,38.7,32.0,19.9,0000.0,0004.03,0008.81,0003.64
2022-09-17 18:56:00,,0824.2,4.99,0.00,30.1,29.1,00.0,38.8,32.0,19.8,0000.0,0004.02,0008.98,0003.64
2022-09-17 18:57:00,,0824.2,5.00,0.00,30.2,28.7,00.0,38.8,32.1,20.2,0000.0,0004.04,0009.32,0003.64
2022-09-17 18:58:00,,0824.2,5.01,0.00,30.2,27.3,00.0,38.8,31.9,20.3,0000.0,0004.03,0009.13,0003.65
2022-09-17 18:59:00,,0824.2,4.99,0.00,30.1,26.6,00.0,38.7,31.9,19.7,0000.0,0004.02,0009.41,0003.65
